Location: La Comballaz
(46.3780°N, 7.0817°E)
Time: 16:20:21
(UTC+00:00)

Cosmos 1408 - Pass Details

Date: 09 April 2020
Orbit: 471 x 494 km, 82.6° (Epoch: 24 May)

Event Time Altitude Azimuth Distance (km) Brightness Sun altitude
Rises 20:42:12 0° 352° (N) 2,564 7.0 -23.7°
Reaches altitude 10° 20:44:18 10° 353° (N) 1,682 5.9 -23.9°
Enters shadow 20:46:56 45° 2° (N) 682 3.5 -24.3°
